| time (UTC) | temp C | wind direction | speed KPH | gust KPH | rain 1hr cm | rain 24hr cm | rain mn cm | humidity % | barometer mb |
| 20260505130200 | 6 | 43 | 0.0 | 0.0 | 0.00 | 0.00 | 0.00 | 75 | 998.2 |
| 20260505124653 | 6 | 43 | 0.0 | 0.0 | 0.00 | 0.00 | 0.00 | 75 | 997.9 |
| 20260505124143 | 5 | 43 | 0.0 | 0.0 | 0.00 | 0.00 | 0.00 | 76 | 997.8 |
| 20260505123643 | 6 | 43 | 0.0 | 0.0 | 0.00 | 0.00 | 0.00 | 76 | 997.8 |
| 20260505123136 | 5 | 43 | 0.0 | 0.0 | 0.00 | 0.00 | 0.00 | 76 | 997.7 |
| 20260505122059 | 5 | 43 | 0.0 | 3.2 | 0.00 | 0.00 | 0.00 | 75 | 997.7 |
| 20260505121602 | 5 | 43 | 0.0 | 8.0 | 0.00 | 0.00 | 0.00 | 75 | 997.6 |
| 20260505120544 | 5 | 43 | 1.6 | 8.0 | 0.00 | 0.00 | 0.00 | 75 | 997.6 |
| 20260505120029 | 5 | 116 | 6.4 | 8.0 | 0.00 | 0.00 | 0.00 | 75 | 997.6 |
| 20260505115020 | 5 | 45 | 0.0 | 0.0 | 0.00 | 0.00 | 0.00 | 76 | 997.6 |
| 20260505114513 | 5 | 45 | 0.0 | 0.0 | 0.00 | 0.00 | 0.00 | 75 | 997.6 |
| 20260505114012 | 5 | 45 | 0.0 | 0.0 | 0.00 | 0.00 | 0.00 | 75 | 997.5 |
| 20260505113509 | 5 | 45 | 0.0 | 0.0 | 0.00 | 0.00 | 0.00 | 75 | 997.5 |
| 20260505112500 | 5 | 45 | 0.0 | 0.0 | 0.00 | 0.00 | 0.00 | 74 | 997.4 |
| 20260505111958 | 5 | 45 | 0.0 | 0.0 | 0.00 | 0.00 | 0.00 | 73 | 997.2 |
| 20260505110951 | 5 | 45 | 0.0 | 0.0 | 0.00 | 0.00 | 0.00 | 73 | 997.4 |
| 20260505110449 | 5 | 45 | 0.0 | 0.0 | 0.00 | 0.00 | 0.00 | 74 | 997.2 |
| 20260505102219 | 5 | 45 | 0.0 | 0.0 | 0.00 | 0.00 | 0.00 | 70 | 996.9 |
| 20260505101715 | 5 | 45 | 0.0 | 0.0 | 0.00 | 0.00 | 0.00 | 69 | 996.8 |
| 20260505101214 | 5 | 45 | 0.0 | 0.0 | 0.00 | 0.00 | 0.00 | 69 | 996.8 |
| 20260505100647 | 5 | 45 | 0.0 | 0.0 | 0.00 | 0.00 | 0.00 | 69 | 996.8 |
| 20260505100112 | 6 | 45 | 0.0 | 0.0 | 0.00 | 0.00 | 0.00 | 69 | 996.8 |
| 20260505095607 | 6 | 45 | 0.0 | 0.0 | 0.00 | 0.00 | 0.00 | 69 | 996.7 |
| 20260505095058 | 5 | 45 | 0.0 | 0.0 | 0.00 | 0.00 | 0.00 | 69 | 996.5 |
| 20260505094544 | 5 | 45 | 0.0 | 0.0 | 0.00 | 0.00 | 0.00 | 69 | 996.5 |
| 20260505094032 | 5 | 45 | 0.0 | 0.0 | 0.00 | 0.00 | 0.00 | 68 | 996.5 |
| 20260505093523 | 5 | 45 | 0.0 | 0.0 | 0.00 | 0.00 | 0.00 | 68 | 996.4 |
| 20260505093002 | 6 | 45 | 0.0 | 0.0 | 0.00 | 0.00 | 0.00 | 67 | 996.4 |
| 20260505092501 | 6 | 45 | 0.0 | 0.0 | 0.00 | 0.00 | 0.00 | 67 | 996.5 |
| 20260505091449 | 6 | 45 | 0.0 | 0.0 | 0.00 | 0.00 | 0.00 | 67 | 996.4 |
| 20260505090947 | 6 | 45 | 0.0 | 0.0 | 0.00 | 0.00 | 0.00 | 66 | 996.4 |
| 20260505085933 | 6 | 45 | 0.0 | 0.0 | 0.00 | 0.00 | 0.00 | 65 | 996.4 |
| 20260505085408 | 6 | 45 | 0.0 | 0.0 | 0.00 | 0.00 | 0.00 | 65 | 996.3 |
| 20260505084835 | 6 | 45 | 0.0 | 0.0 | 0.00 | 0.00 | 0.00 | 64 | 996.3 |
| 20260505084313 | 6 | 45 | 0.0 | 4.8 | 0.00 | 0.00 | 0.00 | 64 | 996.4 |
| 20260505083815 | 6 | 45 | 0.0 | 4.8 | 0.00 | 0.00 | 0.00 | 64 | 996.4 |
| 20260505083309 | 7 | 45 | 1.6 | 4.8 | 0.00 | 0.00 | 0.00 | 63 | 996.4 |
| 20260505082243 | 7 | 358 | 0.0 | 0.0 | 0.00 | 0.00 | 0.00 | 63 | 996.4 |
| 20260505080215 | 8 | 358 | 0.0 | 0.0 | 0.00 | 0.00 | 0.00 | 62 | 996.3 |
| 20260505075715 | 8 | 358 | 0.0 | 0.0 | 0.00 | 0.00 | 0.00 | 61 | 996.3 |
| 20260505075150 | 8 | 358 | 0.0 | 0.0 | 0.00 | 0.00 | 0.00 | 61 | 996.3 |
| 20260505074643 | 8 | 358 | 0.0 | 0.0 | 0.00 | 0.00 | 0.00 | 62 | 996.2 |
| 20260505073623 | 8 | 358 | 0.0 | 0.0 | 0.00 | 0.00 | 0.00 | 60 | 996.3 |
| 20260505072619 | 8 | 358 | 0.0 | 0.0 | 0.00 | 0.00 | 0.00 | 61 | 996.2 |
| 20260505072114 | 8 | 358 | 0.0 | 0.0 | 0.00 | 0.00 | 0.00 | 60 | 996.2 |
| 20260505071556 | 8 | 358 | 0.0 | 0.0 | 0.00 | 0.00 | 0.00 | 59 | 996.0 |
| 20260505071045 | 8 | 358 | 0.0 | 0.0 | 0.00 | 0.00 | 0.00 | 59 | 996.0 |
| 20260505070543 | 9 | 358 | 0.0 | 0.0 | 0.00 | 0.00 | 0.00 | 59 | 996.0 |
| 20260505070038 | 9 | 358 | 0.0 | 0.0 | 0.00 | 0.00 | 0.00 | 58 | 995.8 |
| 20260505065529 | 9 | 358 | 0.0 | 4.8 | 0.00 | 0.00 | 0.00 | 58 | 995.7 |
| 20260505064503 | 9 | 358 | 3.2 | 8.0 | 0.00 | 0.00 | 0.00 | 58 | 995.6 |
| 20260505063957 | 9 | 4 | 8.0 | 8.0 | 0.00 | 0.00 | 0.00 | 57 | 995.6 |
| 20260505063453 | 10 | 257 | 0.0 | 0.0 | 0.00 | 0.00 | 0.00 | 57 | 995.6 |
| 20260505062445 | 10 | 257 | 0.0 | 0.0 | 0.00 | 0.00 | 0.00 | 56 | 995.6 |
| 20260505061932 | 10 | 257 | 0.0 | 0.0 | 0.00 | 0.00 | 0.00 | 57 | 995.6 |
| 20260505061428 | 10 | 257 | 0.0 | 0.0 | 0.00 | 0.00 | 0.00 | 56 | 995.5 |
| 20260505060911 | 10 | 257 | 0.0 | 0.0 | 0.00 | 0.00 | 0.00 | 54 | 995.5 |
| 20260505060344 | 10 | 257 | 0.0 | 0.0 | 0.00 | 0.00 | 0.00 | 54 | 995.4 |
| 20260505055816 | 10 | 257 | 0.0 | 0.0 | 0.00 | 0.00 | 0.00 | 53 | 995.4 |
| 20260505054805 | 11 | 257 | 0.0 | 0.0 | 0.00 | 0.00 | 0.00 | 52 | 995.4 |
| 20260505054242 | 11 | 257 | 0.0 | 6.4 | 0.00 | 0.00 | 0.00 | 51 | 995.3 |
| 20260505053738 | 11 | 257 | 0.0 | 6.4 | 0.00 | 0.00 | 0.00 | 50 | 995.3 |
| 20260505053236 | 11 | 257 | 0.0 | 17.7 | 0.00 | 0.00 | 0.00 | 49 | 995.3 |
| 20260505052723 | 11 | 7 | 0.0 | 17.7 | 0.00 | 0.00 | 0.00 | 49 | 995.3 |
| 20260505052212 | 11 | 350 | 9.7 | 17.7 | 0.00 | 0.00 | 0.00 | 49 | 995.2 |
| 20260505051713 | 11 | 358 | 8.0 | 16.1 | 0.00 | 0.00 | 0.00 | 50 | 995.2 |
| 20260505051211 | 11 | 336 | 9.7 | 14.5 | 0.00 | 0.00 | 0.00 | 51 | 995.0 |
| 20260505050711 | 11 | 5 | 4.8 | 14.5 | 0.00 | 0.00 | 0.00 | 49 | 995.0 |
| 20260505050201 | 11 | 42 | 9.7 | 12.9 | 0.00 | 0.00 | 0.00 | 50 | 995.0 |
| 20260505041646 | 12 | 9 | 6.4 | 11.3 | 0.00 | 0.00 | 0.00 | 46 | 994.8 |
| 20260505040144 | 13 | 16 | 4.8 | 8.0 | 0.00 | 0.00 | 0.00 | 45 | 994.7 |
| 20260505035633 | 13 | 4 | 0.0 | 4.8 | 0.00 | 0.00 | 0.00 | 44 | 994.7 |
| 20260505035120 | 13 | 7 | 0.0 | 9.7 | 0.00 | 0.00 | 0.00 | 43 | 994.6 |
| 20260505034609 | 14 | 63 | 4.8 | 9.7 | 0.00 | 0.00 | 0.00 | 40 | 994.5 |
| 20260505034109 | 15 | 1 | 0.0 | 9.7 | 0.00 | 0.00 | 0.00 | 40 | 994.5 |
| 20260505033546 | 15 | 4 | 6.4 | 9.7 | 0.00 | 0.00 | 0.00 | 39 | 994.5 |
| 20260505033045 | 15 | 28 | 0.0 | 4.8 | 0.00 | 0.00 | 0.00 | 39 | 994.2 |
| 20260505032539 | 15 | 30 | 0.0 | 4.8 | 0.00 | 0.00 | 0.00 | 38 | 994.2 |
| 20260505032037 | 16 | 358 | 0.0 | 0.0 | 0.00 | 0.00 | 0.00 | 39 | 994.1 |
| 20260505031531 | 16 | 358 | 0.0 | 0.0 | 0.00 | 0.00 | 0.00 | 39 | 994.1 |
| 20260505030523 | 17 | 358 | 0.0 | 0.0 | 0.00 | 0.00 | 0.00 | 36 | 993.9 |
| 20260505030022 | 17 | 358 | 0.0 | 0.0 | 0.00 | 0.00 | 0.00 | 34 | 993.9 |
| 20260505025514 | 17 | 358 | 0.0 | 0.0 | 0.00 | 0.00 | 0.00 | 34 | 993.8 |
| 20260505025015 | 18 | 358 | 0.0 | 0.0 | 0.00 | 0.00 | 0.00 | 34 | 993.8 |
| 20260505024510 | 18 | 358 | 0.0 | 0.0 | 0.00 | 0.00 | 0.00 | 33 | 993.6 |
| 20260505023957 | 18 | 358 | 0.0 | 0.0 | 0.00 | 0.00 | 0.00 | 31 | 993.5 |
| 20260505022929 | 19 | 358 | 0.0 | 4.8 | 0.00 | 0.00 | 0.00 | 27 | 993.4 |
| 20260505022425 | 19 | 358 | 0.0 | 9.7 | 0.00 | 0.00 | 0.00 | 29 | 993.4 |
| 20260505021914 | 20 | 106 | 0.0 | 9.7 | 0.00 | 0.00 | 0.00 | 29 | 993.4 |
| 20260505021359 | 20 | 32 | 0.0 | 4.8 | 0.00 | 0.00 | 0.00 | 28 | 993.3 |
| 20260505020345 | 21 | 46 | 3.2 | 8.0 | 0.00 | 0.00 | 0.00 | 25 | 993.3 |
| 20260505015847 | 21 | 123 | 0.0 | 4.8 | 0.00 | 0.00 | 0.00 | 24 | 993.3 |
| 20260505015336 | 22 | 123 | 0.0 | 9.7 | 0.00 | 0.00 | 0.00 | 23 | 993.3 |
| 20260505014246 | 23 | 37 | 0.0 | 12.9 | 0.00 | 0.00 | 0.00 | 20 | 993.3 |
| 20260505013740 | 23 | 19 | 8.0 | 24.1 | 0.00 | 0.00 | 0.00 | 20 | 993.3 |
| 20260505013241 | 24 | 305 | 0.0 | 24.1 | 0.00 | 0.00 | 0.00 | 20 | 993.3 |
| 20260505012739 | 25 | 284 | 0.0 | 22.5 | 0.00 | 0.00 | 0.00 | 19 | 993.4 |
| 20260505012237 | 25 | 302 | 3.2 | 17.7 | 0.00 | 0.00 | 0.00 | 20 | 993.4 |
| 20260505011736 | 25 | 291 | 8.0 | 19.3 | 0.00 | 0.00 | 0.00 | 20 | 993.4 |
| 20260505011228 | 25 | 292 | 9.7 | 29.0 | 0.00 | 0.00 | 0.00 | 20 | 993.4 |
| 20260505010727 | 24 | 104 | 1.6 | 29.0 | 0.00 | 0.00 | 0.00 | 19 | 993.4 |
| 20260505010214 | 24 | 23 | 12.9 | 29.0 | 0.00 | 0.00 | 0.00 | 17 | 993.4 |
| 20260505005717 | 25 | 358 | 8.0 | 24.1 | 0.00 | 0.00 | 0.00 | 17 | 993.4 |
| 20260505004708 | 25 | 14 | 1.6 | 24.1 | 0.00 | 0.00 | 0.00 | 18 | 993.6 |
| 20260505004208 | 25 | 21 | 8.0 | 24.1 | 0.00 | 0.00 | 0.00 | 17 | 993.5 |
| 20260505003706 | 25 | 1 | 6.4 | 22.5 | 0.00 | 0.00 | 0.00 | 18 | 993.5 |
| 20260505003206 | 25 | 241 | 1.6 | 22.5 | 0.00 | 0.00 | 0.00 | 18 | 993.6 |
| 20260505002705 | 25 | 324 | 9.7 | 27.4 | 0.00 | 0.00 | 0.00 | 17 | 993.6 |
| 20260505002203 | 25 | 275 | 4.8 | 27.4 | 0.00 | 0.00 | 0.00 | 17 | 993.6 |
| 20260505001703 | 26 | 329 | 17.7 | 27.4 | 0.00 | 0.00 | 0.00 | 16 | 993.5 |
| 20260505000701 | 26 | 16 | 3.2 | 24.1 | 0.00 | 0.00 | 0.00 | 16 | 993.5 |
| 20260504235701 | 26 | 234 | 9.7 | 17.7 | 0.00 | 0.00 | 0.00 | 16 | 993.4 |
| 20260504235159 | 26 | 262 | 9.7 | 22.5 | 0.00 | 0.00 | 0.00 | 16 | 993.5 |
| 20260504234658 | 25 | 147 | 6.4 | 22.5 | 0.00 | 0.00 | 0.00 | 17 | 993.5 |
| 20260504234201 | 25 | 279 | 4.8 | 22.5 | 0.00 | 0.00 | 0.00 | 16 | 993.5 |
| 20260504233656 | 25 | 251 | 0.0 | 17.7 | 0.00 | 0.00 | 0.00 | 18 | 993.5 |
| 20260504233154 | 25 | 277 | 0.0 | 17.7 | 0.00 | 0.00 | 0.00 | 18 | 993.6 |
| 20260504232645 | 24 | 222 | 1.6 | 17.7 | 0.00 | 0.00 | 0.00 | 18 | 993.6 |
| 20260504232130 | 24 | 22 | 8.0 | 14.5 | 0.00 | 0.00 | 0.00 | 18 | 993.8 |
| 20260504231121 | 24 | 309 | 6.4 | 14.5 | 0.00 | 0.00 | 0.00 | 18 | 993.8 |
| 20260504230620 | 25 | 14 | 8.0 | 12.9 | 0.00 | 0.00 | 0.00 | 17 | 993.6 |
| 20260504230119 | 26 | 309 | 1.6 | 16.1 | 0.00 | 0.00 | 0.00 | 17 | 993.9 |
| 20260504225620 | 26 | 210 | 6.4 | 17.7 | 0.00 | 0.00 | 0.00 | 16 | 993.8 |
| 20260504225118 | 27 | 226 | 11.3 | 17.7 | 0.00 | 0.00 | 0.00 | 15 | 993.9 |
| 20260504223554 | 26 | 216 | 12.9 | 22.5 | 0.00 | 0.00 | 0.00 | 17 | 994.1 |
| 20260504223051 | 26 | 46 | 9.7 | 22.5 | 0.00 | 0.00 | 0.00 | 18 | 994.2 |
| 20260504222552 | 26 | 260 | 11.3 | 19.3 | 0.00 | 0.00 | 0.00 | 18 | 994.2 |
| 20260504221549 | 26 | 178 | 11.3 | 24.1 | 0.00 | 0.00 | 0.00 | 18 | 994.3 |
| 20260504221048 | 26 | 260 | 1.6 | 25.7 | 0.00 | 0.00 | 0.00 | 17 | 994.3 |
| 20260504220547 | 25 | 161 | 8.0 | 25.7 | 0.00 | 0.00 | 0.00 | 18 | 994.5 |
| 20260504215046 | 25 | 160 | 0.0 | 24.1 | 0.00 | 0.00 | 0.00 | 18 | 994.7 |
| 20260504214543 | 25 | 157 | 11.3 | 24.1 | 0.00 | 0.00 | 0.00 | 17 | 994.7 |
| 20260504213541 | 26 | 212 | 12.9 | 27.4 | 0.00 | 0.00 | 0.00 | 18 | 994.9 |
| 20260504213039 | 26 | 279 | 12.9 | 24.1 | 0.00 | 0.00 | 0.00 | 17 | 995.0 |
| 20260504212540 | 26 | 73 | 11.3 | 29.0 | 0.00 | 0.00 | 0.00 | 17 | 995.2 |
| 20260504212036 | 26 | 229 | 4.8 | 29.0 | 0.00 | 0.00 | 0.00 | 17 | 995.2 |
| 20260504211535 | 25 | 216 | 11.3 | 25.7 | 0.00 | 0.00 | 0.00 | 18 | 995.0 |
| 20260504211034 | 25 | 248 | 11.3 | 22.5 | 0.00 | 0.00 | 0.00 | 18 | 995.3 |
| 20260504210534 | 25 | 230 | 9.7 | 17.7 | 0.00 | 0.00 | 0.00 | 18 | 995.3 |
| 20260504210032 | 24 | 208 | 9.7 | 17.7 | 0.00 | 0.00 | 0.00 | 18 | 995.4 |
| 20260504205534 | 24 | 132 | 6.4 | 22.5 | 0.00 | 0.00 | 0.00 | 17 | 995.4 |
| 20260504205029 | 25 | 262 | 11.3 | 24.1 | 0.00 | 0.00 | 0.00 | 18 | 995.4 |
| 20260504204527 | 25 | 250 | 9.7 | 24.1 | 0.00 | 0.00 | 0.00 | 19 | 995.5 |
| 20260504204029 | 25 | 274 | 11.3 | 22.5 | 0.00 | 0.00 | 0.00 | 17 | 995.5 |
| 20260504203016 | 25 | 57 | 8.0 | 20.9 | 0.00 | 0.00 | 0.00 | 18 | 995.6 |
| 20260504202514 | 25 | 229 | 4.8 | 25.7 | 0.00 | 0.00 | 0.00 | 17 | 995.7 |
| 20260504201503 | 25 | 250 | 9.7 | 20.9 | 0.00 | 0.00 | 0.00 | 19 | 995.7 |
| 20260504200446 | 23 | 181 | 12.9 | 25.7 | 0.00 | 0.00 | 0.00 | 20 | 996.0 |
| 20260504195946 | 23 | 198 | 9.7 | 25.7 | 0.00 | 0.00 | 0.00 | 21 | 996.0 |
| 20260504194944 | 23 | 241 | 11.3 | 30.6 | 0.00 | 0.00 | 0.00 | 18 | 996.0 |
| 20260504194443 | 24 | 198 | 4.8 | 30.6 | 0.00 | 0.00 | 0.00 | 19 | 996.1 |
| 20260504193941 | 23 | 185 | 8.0 | 30.6 | 0.00 | 0.00 | 0.00 | 20 | 996.1 |
| 20260504193441 | 23 | 322 | 12.9 | 25.7 | 0.00 | 0.00 | 0.00 | 19 | 996.1 |
| 20260504192939 | 23 | 210 | 9.7 | 25.7 | 0.00 | 0.00 | 0.00 | 22 | 996.2 |
| 20260504192439 | 23 | 234 | 14.5 | 24.1 | 0.00 | 0.00 | 0.00 | 23 | 996.2 |
| 20260504191937 | 23 | 281 | 8.0 | 22.5 | 0.00 | 0.00 | 0.00 | 23 | 996.3 |
| 20260504191436 | 23 | 208 | 16.1 | 22.5 | 0.00 | 0.00 | 0.00 | 23 | 996.4 |
| 20260504190433 | 22 | 258 | 16.1 | 24.1 | 0.00 | 0.00 | 0.00 | 23 | 996.5 |
| 20260504185932 | 22 | 220 | 11.3 | 27.4 | 0.00 | 0.00 | 0.00 | 22 | 996.7 |
| 20260504185431 | 22 | 265 | 11.3 | 27.4 | 0.00 | 0.00 | 0.00 | 25 | 996.5 |
| 20260504184430 | 22 | 175 | 11.3 | 25.7 | 0.00 | 0.00 | 0.00 | 27 | 996.8 |
| 20260504183928 | 22 | 310 | 6.4 | 25.7 | 0.00 | 0.00 | 0.00 | 27 | 996.9 |
| 20260504183428 | 21 | 244 | 12.9 | 25.7 | 0.00 | 0.00 | 0.00 | 27 | 996.9 |
| 20260504182426 | 21 | 210 | 16.1 | 24.1 | 0.00 | 0.00 | 0.00 | 28 | 997.0 |
| 20260504181925 | 21 | 237 | 4.8 | 27.4 | 0.00 | 0.00 | 0.00 | 28 | 997.1 |
| 20260504180921 | 21 | 234 | 9.7 | 27.4 | 0.00 | 0.00 | 0.00 | 30 | 997.2 |
| 20260504180421 | 20 | 226 | 11.3 | 17.7 | 0.00 | 0.00 | 0.00 | 31 | 997.2 |
| 20260504175918 | 20 | 171 | 3.2 | 27.4 | 0.00 | 0.00 | 0.00 | 32 | 997.4 |
| 20260504175417 | 20 | 174 | 12.9 | 27.4 | 0.00 | 0.00 | 0.00 | 34 | 997.5 |
| 20260504174915 | 19 | 216 | 11.3 | 22.5 | 0.00 | 0.00 | 0.00 | 35 | 997.5 |
| 20260504174413 | 19 | 205 | 6.4 | 22.5 | 0.00 | 0.00 | 0.00 | 35 | 997.5 |
| 20260504173913 | 19 | 226 | 6.4 | 22.5 | 0.00 | 0.00 | 0.00 | 35 | 997.6 |
| 20260504173409 | 18 | 143 | 9.7 | 19.3 | 0.00 | 0.00 | 0.00 | 37 | 997.6 |
| 20260504172909 | 18 | 205 | 4.8 | 12.9 | 0.00 | 0.00 | 0.00 | 38 | 997.7 |
| 20260504172408 | 17 | 216 | 1.6 | 11.3 | 0.00 | 0.00 | 0.00 | 40 | 997.8 |
| 20260504170902 | 16 | 130 | 0.0 | 0.0 | 0.00 | 0.00 | 0.00 | 44 | 997.8 |
| 20260504170353 | 16 | 130 | 0.0 | 0.0 | 0.00 | 0.00 | 0.00 | 44 | 997.9 |
| 20260504160155 | 11 | 130 | 0.0 | 0.0 | 0.00 | 0.00 | 0.00 | 61 | 998.6 |
| 20260504151015 | 6 | 130 | 0.0 | 0.0 | 0.00 | 0.00 | 0.00 | 76 | 999.1 |
| 20260504150514 | 6 | 130 | 0.0 | 0.0 | 0.00 | 0.00 | 0.00 | 77 | 999.2 |